TimeCDT,TemperatureF,Dew PointF,Humidity,Sea Level PressureIn,VisibilityMPH,Wind Direction,Wind SpeedMPH,Gust SpeedMPH,PrecipitationIn,Events,Conditions,WindDirDegrees,DateUTC
12:55 AM,50.0,42.8,76,30.14,10.0,SE,5.8,-,0.06,Rain,Rain,130,2012-10-13 05:55:00
1:35 AM,50.0,42.8,76,30.13,10.0,SE,4.6,-,0.01,,Overcast,130,2012-10-13 06:35:00
1:55 AM,50.0,44.6,82,30.11,10.0,SE,6.9,-,0.01,,Overcast,130,2012-10-13 06:55:00
2:15 AM,51.8,44.6,76,30.10,10.0,SE,3.5,-,N/A,,Overcast,130,2012-10-13 07:15:00
2:35 AM,51.8,44.6,76,30.08,10.0,SE,3.5,-,N/A,,Overcast,130,2012-10-13 07:35:00
2:55 AM,51.8,44.6,76,30.06,10.0,SE,4.6,-,N/A,,Mostly Cloudy,130,2012-10-13 07:55:00
3:15 AM,51.8,44.6,76,30.04,10.0,SE,5.8,-,N/A,,Scattered Clouds,140,2012-10-13 08:15:00
3:35 AM,51.8,44.6,76,30.03,10.0,SSE,5.8,-,N/A,,Clear,150,2012-10-13 08:35:00
3:55 AM,51.8,44.6,76,30.03,10.0,SSE,4.6,-,N/A,,Clear,150,2012-10-13 08:55:00
4:15 AM,51.8,44.6,76,30.02,10.0,SSE,4.6,-,N/A,,Mostly Cloudy,150,2012-10-13 09:15:00
4:35 AM,53.6,46.4,77,30.03,10.0,SSE,4.6,-,N/A,,Overcast,150,2012-10-13 09:35:00
4:55 AM,53.6,46.4,77,30.03,10.0,SSE,5.8,-,N/A,,Overcast,150,2012-10-13 09:55:00
5:15 AM,53.6,46.4,77,30.02,10.0,SE,5.8,-,N/A,,Overcast,140,2012-10-13 10:15:00
5:35 AM,53.6,46.4,77,30.01,10.0,SSE,5.8,-,N/A,,Overcast,160,2012-10-13 10:35:00
5:55 AM,55.4,46.4,72,30.01,10.0,SSE,5.8,-,N/A,,Overcast,150,2012-10-13 10:55:00
6:15 AM,55.4,46.4,72,30.01,10.0,SSE,5.8,-,N/A,,Overcast,150,2012-10-13 11:15:00
6:35 AM,55.4,48.2,77,30.00,10.0,SSE,5.8,-,N/A,,Mostly Cloudy,150,2012-10-13 11:35:00
6:55 AM,55.4,48.2,77,30.00,10.0,SSE,4.6,-,N/A,Rain,Light Rain,150,2012-10-13 11:55:00
7:15 AM,55.4,48.2,77,29.99,10.0,SSE,4.6,-,0.01,Rain,Rain,150,2012-10-13 12:15:00
7:35 AM,55.4,48.2,77,29.96,10.0,SSE,8.1,-,0.06,Rain,Rain,150,2012-10-13 12:35:00
7:55 AM,55.4,50.0,82,29.93,7.0,SSE,10.4,-,0.09,Rain,Light Rain,160,2012-10-13 12:55:00
8:15 AM,55.4,51.8,88,29.94,7.0,South,6.9,-,0.04,Rain,Rain,180,2012-10-13 13:15:00
8:55 AM,55.4,51.8,88,30.01,5.0,South,9.2,-,0.17,Rain,Heavy Rain,190,2012-10-13 13:55:00
9:35 AM,55.4,51.8,88,29.96,4.0,SSE,8.1,-,0.18,Rain,Rain,160,2012-10-13 14:35:00
9:55 AM,55.4,51.8,88,29.95,5.0,SSE,10.4,-,0.26,Rain,Rain,160,2012-10-13 14:55:00
10:15 AM,57.2,51.8,82,29.95,4.0,SSE,9.2,-,0.06,Rain,Rain,160,2012-10-13 15:15:00
10:35 AM,57.2,51.8,82,29.94,3.0,SSE,6.9,-,0.10,Rain,Rain,160,2012-10-13 15:35:00
10:55 AM,57.2,53.6,88,29.93,4.0,South,8.1,-,0.11,Rain,Light Rain,170,2012-10-13 15:55:00
11:15 AM,57.2,53.6,88,29.92,4.0,South,6.9,-,0.03,Rain,Light Rain,170,2012-10-13 16:15:00
11:35 AM,59.0,53.6,82,29.91,4.0,South,11.5,-,0.10,Rain,Heavy Rain,170,2012-10-13 16:35:00
11:55 AM,59.0,55.4,88,29.90,10.0,South,10.4,-,0.13,Rain,Light Rain,170,2012-10-13 16:55:00
12:15 PM,59.0,55.4,88,29.89,7.0,South,10.4,-,N/A,Rain,Rain,180,2012-10-13 17:15:00
12:35 PM,60.8,55.4,82,29.88,7.0,South,8.1,-,N/A,,Overcast,180,2012-10-13 17:35:00
12:55 PM,60.8,55.4,82,29.87,7.0,South,12.7,-,0.02,Rain,Light Rain,170,2012-10-13 17:55:00
1:15 PM,60.8,55.4,82,29.84,5.0,South,10.4,-,0.01,,Drizzle,170,2012-10-13 18:15:00
1:35 PM,60.8,57.2,88,29.81,5.0,SSE,6.9,-,0.02,Rain,Light Rain,150,2012-10-13 18:35:00
1:55 PM,62.6,57.2,82,29.82,5.0,South,9.2,-,0.02,,Haze,190,2012-10-13 18:55:00
2:15 PM,62.6,57.2,82,29.81,4.0,South,10.4,-,N/A,,Haze,180,2012-10-13 19:15:00
2:35 PM,62.6,59.0,88,29.80,4.0,South,6.9,-,N/A,,Overcast,190,2012-10-13 19:35:00
2:55 PM,64.4,60.8,88,29.78,4.0,South,4.6,-,N/A,,Overcast,170,2012-10-13 19:55:00
3:15 PM,64.4,60.8,88,29.76,4.0,SSE,8.1,-,N/A,,Mostly Cloudy,160,2012-10-13 20:15:00
3:35 PM,66.2,62.6,88,29.78,4.0,South,11.5,-,N/A,,Scattered Clouds,180,2012-10-13 20:35:00
3:55 PM,66.2,60.8,83,29.79,5.0,SSW,9.2,-,N/A,,Haze,200,2012-10-13 20:55:00
4:15 PM,66.2,62.6,88,29.78,5.0,South,10.4,17.3,N/A,,Overcast,190,2012-10-13 21:15:00
4:35 PM,66.2,62.6,88,29.78,7.0,SSW,10.4,-,N/A,,Overcast,200,2012-10-13 21:35:00
4:55 PM,66.2,62.6,88,29.78,7.0,SSW,9.2,-,N/A,,Overcast,200,2012-10-13 21:55:00
5:15 PM,68.0,62.6,83,29.77,7.0,South,9.2,-,N/A,,Scattered Clouds,190,2012-10-13 22:15:00
5:35 PM,68.0,62.6,83,29.77,7.0,South,6.9,-,N/A,,Scattered Clouds,180,2012-10-13 22:35:00
5:55 PM,68.0,62.6,83,29.76,7.0,South,6.9,-,N/A,,Mostly Cloudy,170,2012-10-13 22:55:00
6:15 PM,68.0,62.6,83,29.76,7.0,SSE,5.8,-,N/A,,Scattered Clouds,150,2012-10-13 23:15:00
6:35 PM,66.2,62.6,88,29.78,7.0,South,5.8,-,N/A,,Mostly Cloudy,170,2012-10-13 23:35:00
7:15 PM,66.2,60.8,83,29.79,3.0,South,6.9,-,N/A,,Drizzle,170,2012-10-14 00:15:00
7:35 PM,66.2,62.6,88,29.77,4.0,South,9.2,-,N/A,Rain,Light Rain,170,2012-10-14 00:35:00
7:55 PM,66.2,62.6,88,29.75,7.0,SSE,6.9,-,0.01,,Overcast,160,2012-10-14 00:55:00
9:15 PM,66.2,60.8,83,29.76,10.0,Calm,Calm,-,N/A,,Overcast,0,2012-10-14 02:15:00
9:35 PM,68.0,62.6,83,29.75,10.0,South,4.6,-,N/A,,Overcast,170,2012-10-14 02:35:00
9:55 PM,66.2,60.8,83,29.75,10.0,SSE,3.5,-,N/A,,Overcast,150,2012-10-14 02:55:00
10:15 PM,66.2,60.8,83,29.75,10.0,South,8.1,-,N/A,,Overcast,170,2012-10-14 03:15:00
10:55 PM,66.2,60.8,83,29.74,10.0,Calm,Calm,-,N/A,Rain,Light Rain,0,2012-10-14 03:55:00
11:35 PM,66.2,60.8,83,29.73,7.0,East,3.5,-,N/A,Rain,Light Rain,90,2012-10-14 04:35:00